| time (UTC) | temp F | wind direction | speed knots | gust knots | rain 1hr in | rain 24hr in | rain mn in | humidity % | barometer mb |
| 20260505201003 | 55 | 218 | 0.9 | 0.9 | 0.00 | 0.00 | 0.00 | 89 | 989.5 |
| 20260505200004 | 55 | 162 | 0.0 | 1.7 | 0.00 | 0.00 | 0.00 | 90 | 989.5 |
| 20260505195003 | 55 | 219 | 0.9 | 1.7 | 0.00 | 0.00 | 0.00 | 90 | 989.5 |
| 20260505194003 | 55 | 125 | 0.9 | 0.9 | 0.00 | 0.00 | 0.00 | 90 | 989.6 |
| 20260505193002 | 55 | 160 | 0.0 | 0.9 | 0.00 | 0.00 | 0.00 | 88 | 989.5 |
| 20260505192003 | 55 | 210 | 0.0 | 0.9 | 0.00 | 0.00 | 0.00 | 87 | 989.5 |
| 20260505191004 | 55 | 154 | 1.7 | 1.7 | 0.00 | 0.00 | 0.00 | 87 | 989.4 |
| 20260505190004 | 55 | 132 | 0.9 | 1.7 | 0.00 | 0.00 | 0.00 | 87 | 989.5 |
| 20260505185003 | 55 | 158 | 0.9 | 0.9 | 0.00 | 0.00 | 0.00 | 87 | 989.4 |
| 20260505184003 | 55 | 167 | 0.0 | 0.0 | 0.00 | 0.00 | 0.00 | 86 | 989.4 |
| 20260505183002 | 55 | 136 | 0.0 | 0.9 | 0.00 | 0.00 | 0.00 | 86 | 989.4 |
| 20260505182003 | 55 | 130 | 0.9 | 0.9 | 0.00 | 0.00 | 0.00 | 85 | 989.4 |
| 20260505181004 | 55 | 12 | 0.0 | 0.0 | 0.00 | 0.00 | 0.00 | 84 | 989.3 |
| 20260505180003 | 55 | 140 | 0.9 | 0.9 | 0.00 | 0.00 | 0.00 | 84 | 989.2 |
| 20260505175003 | 55 | 159 | 0.0 | 0.9 | 0.00 | 0.00 | 0.00 | 84 | 989.1 |
| 20260505174003 | 55 | 112 | 0.9 | 0.9 | 0.00 | 0.00 | 0.00 | 84 | 989.0 |
| 20260505173002 | 54 | 128 | 0.9 | 1.7 | 0.00 | 0.00 | 0.00 | 85 | 989.0 |
| 20260505172003 | 55 | 161 | 0.0 | 1.7 | 0.00 | 0.00 | 0.00 | 84 | 988.9 |
| 20260505171007 | 54 | 214 | 1.7 | 2.6 | 0.00 | 0.00 | 0.00 | 83 | 988.8 |
| 20260505170003 | 54 | 137 | 0.0 | 0.0 | 0.00 | 0.00 | 0.00 | 86 | 988.8 |
| 20260505165003 | 54 | 150 | 1.7 | 1.7 | 0.00 | 0.00 | 0.00 | 85 | 988.7 |
| 20260505164006 | 54 | 66 | 0.0 | 0.0 | 0.00 | 0.00 | 0.00 | 85 | 988.7 |
| 20260505163002 | 54 | 199 | 0.9 | 0.9 | 0.00 | 0.00 | 0.00 | 87 | 988.7 |
| 20260505162004 | 53 | 104 | 0.0 | 0.9 | 0.00 | 0.00 | 0.00 | 88 | 988.7 |
| 20260505161003 | 53 | 0 | 0.0 | 0.0 | 0.00 | 0.00 | 0.00 | 90 | 988.7 |
| 20260505153003 | 51 | 0 | 0.0 | 0.0 | 0.00 | 0.00 | 0.00 | 93 | 988.6 |
| 20260505152002 | 50 | 111 | 0.0 | 0.0 | 0.00 | 0.00 | 0.00 | 93 | 988.5 |
| 20260505151003 | 50 | 0 | 0.0 | 0.0 | 0.00 | 0.00 | 0.00 | 93 | 988.4 |
| 20260505125002 | 48 | 84 | 0.0 | 0.0 | 0.00 | 0.00 | 0.00 | 95 | 987.8 |
| 20260505124004 | 48 | 0 | 0.0 | 0.0 | 0.00 | 0.00 | 0.00 | 95 | 987.8 |
| 20260505123002 | 48 | 0 | 0.0 | 0.0 | 0.00 | 0.00 | 0.00 | 95 | 987.7 |
| 20260505122003 | 48 | 168 | 0.0 | 0.0 | 0.00 | 0.00 | 0.00 | 95 | 987.8 |
| 20260505121005 | 49 | 13 | 0.0 | 0.0 | 0.00 | 0.00 | 0.00 | 95 | 987.8 |
| 20260505120003 | 49 | 0 | 0.0 | 0.0 | 0.00 | 0.00 | 0.00 | 95 | 987.9 |
| 20260505115003 | 48 | 0 | 0.0 | 0.0 | 0.00 | 0.00 | 0.00 | 94 | 987.9 |
| 20260505114003 | 48 | 59 | 0.0 | 0.0 | 0.00 | 0.00 | 0.00 | 94 | 987.8 |
| 20260505113003 | 49 | 0 | 0.0 | 0.0 | 0.00 | 0.00 | 0.00 | 94 | 987.9 |
| 20260505112004 | 49 | 0 | 0.0 | 0.0 | 0.00 | 0.00 | 0.00 | 94 | 987.8 |
| 20260505111002 | 49 | 0 | 0.0 | 0.0 | 0.00 | 0.00 | 0.00 | 94 | 987.7 |
| 20260505102003 | 49 | 39 | 0.0 | 0.9 | 0.00 | 0.00 | 0.00 | 91 | 987.8 |
| 20260505101003 | 49 | 0 | 0.0 | 0.0 | 0.00 | 0.00 | 0.00 | 92 | 987.9 |
| 20260505100003 | 49 | 357 | 0.0 | 0.9 | 0.00 | 0.00 | 0.00 | 91 | 987.9 |
| 20260505095003 | 50 | 0 | 0.0 | 0.0 | 0.00 | 0.00 | 0.00 | 91 | 987.9 |
| 20260505094003 | 50 | 0 | 0.0 | 0.0 | 0.00 | 0.00 | 0.00 | 90 | 988.0 |
| 20260505093003 | 50 | 0 | 0.0 | 0.0 | 0.00 | 0.00 | 0.00 | 90 | 988.0 |
| 20260505092003 | 50 | 0 | 0.0 | 0.0 | 0.00 | 0.00 | 0.00 | 90 | 988.1 |
| 20260505091004 | 50 | 34 | 0.9 | 0.9 | 0.00 | 0.00 | 0.00 | 91 | 988.2 |
| 20260505090004 | 50 | 0 | 0.0 | 0.0 | 0.00 | 0.00 | 0.00 | 91 | 988.2 |
| 20260505085002 | 50 | 0 | 0.0 | 0.0 | 0.00 | 0.00 | 0.00 | 91 | 988.4 |
| 20260505084003 | 50 | 0 | 0.0 | 0.0 | 0.00 | 0.00 | 0.00 | 91 | 988.4 |
| 20260505083003 | 50 | 327 | 0.0 | 0.9 | 0.00 | 0.00 | 0.00 | 92 | 988.4 |
| 20260505082003 | 50 | 67 | 0.0 | 0.9 | 0.00 | 0.00 | 0.00 | 92 | 988.4 |
| 20260505081005 | 50 | 0 | 0.0 | 0.0 | 0.00 | 0.00 | 0.00 | 93 | 988.6 |
| 20260505080003 | 50 | 0 | 0.0 | 0.0 | 0.00 | 0.00 | 0.00 | 93 | 988.6 |
| 20260505075002 | 50 | 0 | 0.0 | 0.0 | 0.00 | 0.00 | 0.00 | 93 | 988.6 |
| 20260505074003 | 50 | 0 | 0.0 | 0.0 | 0.00 | 0.00 | 0.00 | 93 | 988.5 |
| 20260505073003 | 51 | 0 | 0.0 | 0.0 | 0.00 | 0.00 | 0.00 | 93 | 988.5 |
| 20260505072003 | 51 | 0 | 0.0 | 0.0 | 0.00 | 0.00 | 0.00 | 92 | 988.4 |
| 20260505071003 | 51 | 0 | 0.0 | 0.0 | 0.00 | 0.00 | 0.00 | 92 | 988.3 |
| 20260505070004 | 51 | 0 | 0.0 | 0.0 | 0.00 | 0.00 | 0.00 | 92 | 988.4 |
| 20260505065003 | 51 | 0 | 0.0 | 0.0 | 0.00 | 0.00 | 0.00 | 92 | 988.4 |
| 20260505064003 | 51 | 90 | 0.0 | 0.0 | 0.00 | 0.00 | 0.00 | 92 | 988.3 |
| 20260505063002 | 51 | 0 | 0.0 | 0.0 | 0.00 | 0.00 | 0.00 | 92 | 988.2 |
| 20260505062003 | 51 | 0 | 0.0 | 0.0 | 0.00 | 0.00 | 0.00 | 91 | 988.1 |
| 20260505061003 | 51 | 218 | 0.0 | 0.0 | 0.00 | 0.00 | 0.00 | 90 | 988.1 |
| 20260505060004 | 51 | 0 | 0.0 | 0.0 | 0.00 | 0.00 | 0.00 | 90 | 988.2 |
| 20260505055002 | 51 | 0 | 0.0 | 0.0 | 0.00 | 0.00 | 0.00 | 90 | 988.3 |
| 20260505054003 | 52 | 0 | 0.0 | 0.0 | 0.00 | 0.00 | 0.00 | 90 | 988.5 |
| 20260505053003 | 52 | 0 | 0.0 | 0.0 | 0.00 | 0.00 | 0.00 | 89 | 988.5 |
| 20260505052002 | 52 | 0 | 0.0 | 0.0 | 0.00 | 0.00 | 0.00 | 89 | 988.6 |
| 20260505051003 | 52 | 0 | 0.0 | 0.0 | 0.00 | 0.00 | 0.00 | 88 | 988.6 |
| 20260505041004 | 52 | 0 | 0.0 | 0.0 | 0.00 | 0.00 | 0.00 | 85 | 988.2 |
| 20260505040005 | 53 | 244 | 0.9 | 1.7 | 0.00 | 0.00 | 0.00 | 84 | 988.2 |
| 20260505035003 | 53 | 0 | 0.0 | 0.0 | 0.00 | 0.00 | 0.00 | 82 | 987.9 |
| 20260505034003 | 54 | 0 | 0.0 | 0.0 | 0.00 | 0.00 | 0.00 | 81 | 987.7 |
| 20260505033002 | 54 | 355 | 0.0 | 0.0 | 0.00 | 0.00 | 0.00 | 80 | 987.6 |
| 20260505032004 | 54 | 167 | 0.0 | 0.9 | 0.00 | 0.00 | 0.00 | 79 | 987.7 |
| 20260505031003 | 54 | 69 | 0.0 | 0.0 | 0.00 | 0.00 | 0.00 | 79 | 987.8 |
| 20260505030003 | 55 | 0 | 0.0 | 0.0 | 0.00 | 0.00 | 0.00 | 77 | 987.8 |
| 20260505025003 | 55 | 136 | 0.0 | 0.0 | 0.00 | 0.00 | 0.00 | 76 | 987.6 |
| 20260505024003 | 55 | 228 | 0.9 | 0.9 | 0.00 | 0.00 | 0.00 | 76 | 987.7 |
| 20260505023002 | 56 | 148 | 1.7 | 1.7 | 0.00 | 0.00 | 0.00 | 77 | 987.6 |
| 20260505022002 | 56 | 127 | 1.7 | 1.7 | 0.00 | 0.00 | 0.00 | 77 | 987.6 |
| 20260505021003 | 57 | 0 | 0.0 | 0.0 | 0.00 | 0.00 | 0.00 | 76 | 987.4 |
| 20260505020003 | 57 | 132 | 0.9 | 2.6 | 0.00 | 0.00 | 0.00 | 75 | 987.5 |
| 20260505015003 | 58 | 302 | 0.0 | 0.0 | 0.00 | 0.00 | 0.00 | 75 | 987.5 |
| 20260505014006 | 58 | 233 | 1.7 | 1.7 | 0.00 | 0.00 | 0.00 | 72 | 987.5 |
| 20260505013003 | 59 | 292 | 0.9 | 1.7 | 0.00 | 0.00 | 0.00 | 72 | 987.6 |
| 20260505012003 | 59 | 314 | 0.9 | 1.7 | 0.00 | 0.00 | 0.00 | 71 | 987.6 |
| 20260505011003 | 59 | 66 | 0.9 | 0.9 | 0.00 | 0.00 | 0.00 | 71 | 987.7 |
| 20260505010004 | 59 | 77 | 0.0 | 0.9 | 0.00 | 0.00 | 0.00 | 72 | 987.7 |
| 20260505005003 | 59 | 286 | 0.9 | 0.9 | 0.00 | 0.00 | 0.00 | 72 | 987.9 |
| 20260505004002 | 59 | 73 | 0.0 | 0.0 | 0.00 | 0.00 | 0.00 | 72 | 987.8 |
| 20260505003003 | 59 | 98 | 1.7 | 1.7 | 0.00 | 0.00 | 0.00 | 71 | 987.8 |
| 20260505002003 | 59 | 0 | 0.0 | 0.0 | 0.00 | 0.00 | 0.00 | 75 | 987.8 |
| 20260505001005 | 59 | 123 | 0.9 | 1.7 | 0.00 | 0.00 | 0.00 | 70 | 987.7 |
| 20260505000003 | 59 | 311 | 0.0 | 0.9 | 0.00 | 0.00 | 0.00 | 73 | 987.8 |
| 20260504235002 | 59 | 179 | 1.7 | 2.6 | 0.00 | 0.00 | 0.00 | 71 | 987.8 |
| 20260504234004 | 58 | 235 | 0.9 | 1.7 | 0.00 | 0.00 | 0.00 | 73 | 987.8 |
| 20260504233003 | 58 | 0 | 0.0 | 0.0 | 0.00 | 0.00 | 0.00 | 74 | 987.9 |
| 20260504232003 | 59 | 167 | 1.7 | 2.6 | 0.00 | 0.00 | 0.00 | 72 | 987.9 |
| 20260504231002 | 59 | 214 | 1.7 | 1.7 | 0.00 | 0.00 | 0.00 | 72 | 988.1 |
| 20260504230004 | 59 | 219 | 2.6 | 3.5 | 0.00 | 0.00 | 0.00 | 72 | 988.1 |
| 20260504225003 | 58 | 137 | 1.7 | 1.7 | 0.00 | 0.00 | 0.00 | 73 | 988.0 |
| 20260504224003 | 58 | 83 | 1.7 | 2.6 | 0.00 | 0.00 | 0.00 | 76 | 988.2 |
| 20260504223002 | 57 | 102 | 1.7 | 2.6 | 0.00 | 0.00 | 0.00 | 74 | 988.2 |
| 20260504222003 | 58 | 59 | 1.7 | 1.7 | 0.00 | 0.00 | 0.00 | 72 | 988.2 |
| 20260504221003 | 58 | 6 | 0.9 | 0.9 | 0.00 | 0.00 | 0.00 | 74 | 988.4 |
| 20260504220004 | 58 | 116 | 0.0 | 1.7 | 0.00 | 0.00 | 0.00 | 75 | 988.5 |
| 20260504215003 | 58 | 125 | 1.7 | 1.7 | 0.00 | 0.00 | 0.00 | 74 | 988.5 |
| 20260504214006 | 59 | 207 | 0.9 | 1.7 | 0.00 | 0.00 | 0.00 | 73 | 988.4 |
| 20260504213003 | 59 | 221 | 0.9 | 1.7 | 0.00 | 0.00 | 0.00 | 73 | 988.5 |
| 20260504212004 | 59 | 155 | 1.7 | 3.5 | 0.00 | 0.00 | 0.00 | 73 | 988.5 |
| 20260504211003 | 58 | 131 | 1.7 | 2.6 | 0.00 | 0.00 | 0.00 | 73 | 988.6 |
| 20260504210004 | 59 | 27 | 1.7 | 1.7 | 0.00 | 0.00 | 0.00 | 73 | 988.7 |
| 20260504205002 | 58 | 358 | 0.0 | 0.9 | 0.00 | 0.00 | 0.00 | 74 | 988.6 |
| 20260504204003 | 59 | 301 | 0.0 | 0.9 | 0.00 | 0.00 | 0.00 | 74 | 988.6 |
| 20260504203003 | 59 | 117 | 0.9 | 1.7 | 0.00 | 0.00 | 0.00 | 71 | 988.5 |
| 20260504202003 | 59 | 31 | 0.9 | 1.7 | 0.00 | 0.00 | 0.00 | 71 | 988.7 |